TimeEST,TemperatureF,Dew PointF,Humidity,Sea Level PressureIn,VisibilityMPH,Wind Direction,Wind SpeedMPH,Gust SpeedMPH,PrecipitationIn,Events,Conditions,WindDirDegrees,DateUTC
12:53 AM,45.0,43.0,93,29.99,10.0,NNW,3.5,-,N/A,,Overcast,340,2013-01-17 05:53:00
12:55 AM,45.0,43.0,93,30.02,10.0,North,3.5,-,N/A,,Overcast,360,2013-01-17 05:55:00
1:53 AM,45.0,43.0,93,30.02,10.0,South,3.5,-,N/A,,Overcast,190,2013-01-17 06:53:00
2:49 AM,44.6,42.8,93,30.06,8.0,WNW,5.8,-,0.01,Rain,Light Rain,300,2013-01-17 07:49:00
2:53 AM,45.0,43.0,93,30.03,8.0,NW,5.8,-,0.01,Rain,Light Rain,320,2013-01-17 07:53:00
3:53 AM,44.1,39.9,85,30.02,10.0,NNE,8.1,-,0.02,Rain,Light Rain,20,2013-01-17 08:53:00
4:53 AM,42.1,39.0,89,29.99,10.0,North,9.2,-,0.01,,Overcast,360,2013-01-17 09:53:00
5:26 AM,41.0,37.0,86,30.03,7.0,North,9.2,-,0.01,Rain,Rain,360,2013-01-17 10:26:00
5:53 AM,39.0,34.0,82,30.02,10.0,North,6.9,-,0.02,Rain,Light Rain,10,2013-01-17 10:53:00
6:32 AM,37.0,33.1,86,30.05,4.0,NE,4.6,-,0.04,Rain,Rain,40,2013-01-17 11:32:00
6:53 AM,37.0,33.1,86,30.01,10.0,NE,6.9,-,0.06,Rain,Light Rain,50,2013-01-17 11:53:00
7:51 AM,37.4,35.6,93,30.03,10.0,North,5.8,-,0.01,,Overcast,360,2013-01-17 12:51:00
7:53 AM,37.9,35.1,89,30.01,10.0,North,5.8,-,0.01,,Overcast,10,2013-01-17 12:53:00
8:53 AM,39.9,36.0,86,30.02,10.0,NNE,4.6,-,N/A,,Overcast,30,2013-01-17 13:53:00
9:53 AM,39.9,35.1,83,30.01,6.0,NNE,6.9,-,0.01,Rain,Light Rain,20,2013-01-17 14:53:00
10:53 AM,37.9,33.1,83,30.00,9.0,NE,6.9,-,0.03,Rain,Light Rain,40,2013-01-17 15:53:00
11:53 AM,37.0,33.1,86,29.98,3.0,NNE,11.5,-,0.06,Rain,Rain,20,2013-01-17 16:53:00
12:53 PM,37.0,33.1,86,29.95,3.0,NE,8.1,-,0.05,Rain,Rain,50,2013-01-17 17:53:00
1:17 PM,36.0,34.0,93,29.97,2.0,North,6.9,-,0.07,Rain,Heavy Rain,360,2013-01-17 18:17:00
1:53 PM,35.1,33.1,92,29.96,1.5,NNE,4.6,-,0.16,Rain,Rain,30,2013-01-17 18:53:00
2:38 PM,35.1,33.1,92,29.97,2.0,NE,6.9,-,0.09,Rain-Snow,Rain,50,2013-01-17 19:38:00
2:50 PM,33.8,32.0,93,29.96,1.0,NNE,6.9,-,0.11,Snow,Light Snow,20,2013-01-17 19:50:00
2:53 PM,33.1,32.0,96,29.95,1.0,North,6.9,-,0.12,Snow,Light Snow,10,2013-01-17 19:53:00
3:03 PM,33.1,32.0,96,29.98,1.0,North,5.8,-,0.03,Snow,Light Snow,360,2013-01-17 20:03:00
3:23 PM,33.1,32.0,96,30.00,0.5,North,5.8,-,0.09,Snow,Snow,10,2013-01-17 20:23:00
3:40 PM,33.1,32.0,96,30.00,0.2,NNE,8.1,-,0.17,Fog-Snow,Heavy Snow,20,2013-01-17 20:40:00
3:53 PM,33.1,32.0,96,30.00,0.2,NNE,9.2,-,0.19,Fog-Snow,Heavy Snow,20,2013-01-17 20:53:00
4:53 PM,32.0,32.0,100,30.01,0.2,NNE,3.5,-,0.22,Fog-Snow,Heavy Snow,20,2013-01-17 21:53:00
5:49 PM,33.8,32.0,93,30.02,0.8,East,6.9,-,0.23,Snow,Light Snow,80,2013-01-17 22:49:00
5:53 PM,33.1,32.0,96,30.02,0.8,East,8.1,-,0.23,Snow,Light Snow,90,2013-01-17 22:53:00
6:31 PM,34.0,32.0,92,30.02,6.0,NNE,5.8,-,0.01,Snow,Light Snow,30,2013-01-17 23:31:00
6:53 PM,34.0,32.0,92,30.05,8.0,NW,4.6,-,0.01,Snow,Light Snow,320,2013-01-17 23:53:00
7:53 PM,34.0,32.0,92,30.11,10.0,WNW,6.9,-,0.00,,Overcast,290,2013-01-18 00:53:00
8:12 PM,34.0,30.9,89,30.13,10.0,Variable,4.6,-,N/A,,Overcast,0,2013-01-18 01:12:00
8:53 PM,35.1,30.9,85,30.16,10.0,NW,5.8,-,N/A,,Overcast,320,2013-01-18 01:53:00
9:09 PM,35.1,30.9,85,30.19,10.0,NNW,9.2,-,N/A,,Overcast,330,2013-01-18 02:09:00
9:53 PM,34.0,30.9,89,30.22,10.0,NW,9.2,-,N/A,,Mostly Cloudy,310,2013-01-18 02:53:00
10:53 PM,33.1,28.0,82,30.25,10.0,NNW,4.6,-,N/A,,Scattered Clouds,340,2013-01-18 03:53:00
11:53 PM,30.9,28.0,89,30.30,10.0,West,5.8,-,N/A,,Scattered Clouds,260,2013-01-18 04:53:00